period_start,C,m1,H,J0,J1,J2,J3,J4,J5,JA,JB,JC,JD,JJ,JK,JN,#
2018-06-30 00:00:10,0.00,0.06,0.00,23.34,26.83,29.73,13.97,48.83,1019.58,2031.02,3368.73,3085.99,3546.00,599.89,597.03,20.37,0000 0000 0000 0000 000000
2018-06-30 00:05:11,0.00,0.06,0.00,23.35,26.85,29.74,13.93,48.79,1019.58,2031.01,3368.33,3085.97,3545.99,599.57,596.64,20.42,0000 0000 0000 0000 000000
2018-06-30 00:10:13,0.00,0.06,0.00,23.37,26.85,29.74,14.02,48.90,1019.56,2031.00,3368.03,3085.91,3545.88,600.02,597.17,20.47,0000 0000 0000 0000 000000
2018-06-30 00:15:14,0.02,0.06,0.00,23.37,26.85,29.72,14.10,48.89,1019.55,2031.00,3368.01,3085.50,3545.35,599.99,596.98,20.52,0000 0000 0000 0000 000000
2018-06-30 00:20:15,0.01,0.06,0.00,23.37,26.86,29.76,14.01,48.85,1019.55,2031.00,3368.00,3085.17,3545.09,600.07,597.16,20.57,0000 0000 0000 0000 000000
2018-06-30 00:25:16,0.00,0.06,0.00,23.39,26.87,29.75,13.98,48.78,1019.55,2031.00,3367.99,3085.07,3545.01,600.01,596.94,20.62,0000 0000 0000 0000 000000
2018-06-30 00:30:17,0.00,0.06,0.00,23.41,26.87,29.72,13.94,48.71,1019.55,2031.00,3367.92,3085.03,3545.00,599.86,596.80,20.67,0000 0000 0000 0000 000000
2018-06-30 00:35:18,0.01,0.06,0.00,23.42,26.88,29.72,13.93,48.87,1019.55,2031.00,3367.51,3085.00,3544.99,599.69,596.64,20.72,0000 0000 0000 0000 000000
2018-06-30 00:40:19,0.00,0.06,0.00,23.44,26.90,29.69,14.02,48.77,1019.55,2031.00,3367.06,3085.00,3544.98,600.31,596.97,20.77,0000 0000 0000 0000 000000
2018-06-30 00:45:21,0.00,0.06,0.00,23.46,26.90,29.65,14.00,48.86,1019.52,2031.00,3367.00,3084.98,3544.76,599.99,596.79,20.82,0000 0000 0000 0000 000000
2018-06-30 00:50:22,0.00,0.06,0.00,23.49,26.91,29.68,13.88,48.77,1019.35,2030.99,3367.00,3084.97,3544.42,599.80,596.47,20.87,0000 0000 0000 0000 000000
2018-06-30 00:55:23,0.00,0.06,0.00,23.53,26.92,29.68,13.97,48.88,1019.37,2030.99,3367.00,3084.96,3544.21,600.15,596.69,20.92,0000 0000 0000 0000 000000
2018-06-30 01:00:25,0.00,0.06,0.00,23.56,26.93,29.66,13.97,48.89,1019.37,2030.98,3367.00,3084.96,3544.23,600.10,596.63,20.97,0000 0000 0000 0000 000000
2018-06-30 01:05:26,0.00,0.06,0.00,23.58,26.95,29.67,14.02,48.91,1019.18,2030.97,3367.00,3084.85,3544.11,600.18,596.52,21.02,0000 0000 0000 0000 000000
2018-06-30 01:10:27,-0.01,0.06,0.00,23.60,26.96,29.67,14.00,48.90,1019.22,2030.79,3366.97,3084.28,3544.00,600.22,596.59,21.07,0000 0000 0000 0000 000000
2018-06-30 01:15:28,0.01,0.06,0.00,23.62,26.97,29.65,14.02,48.82,1019.22,2030.68,3366.89,3084.07,3544.00,599.96,596.25,21.12,0000 0000 0000 0000 000000
2018-06-30 01:20:29,-0.01,0.06,0.00,23.64,26.98,29.68,13.95,48.87,1019.14,2030.64,3366.77,3084.04,3544.00,600.12,596.35,21.17,0000 0000 0000 0000 000000
2018-06-30 01:25:31,-0.01,0.06,0.00,23.65,27.00,29.68,13.95,48.92,1019.11,2030.44,3366.55,3084.02,3544.00,600.09,596.26,21.22,0000 0000 0000 0000 000000
2018-06-30 01:30:32,-0.01,0.06,0.00,23.66,27.01,29.69,13.88,48.79,1019.09,2030.16,3366.22,3084.01,3543.97,599.45,595.60,21.27,0000 0000 0000 0000 000000
2018-06-30 01:35:33,0.00,0.06,0.00,23.69,27.02,29.68,13.99,48.89,1019.09,2030.05,3366.05,3084.00,3543.87,600.29,596.36,21.32,0000 0000 0000 0000 000000
2018-06-30 01:40:34,0.00,0.06,0.00,23.73,27.04,29.70,13.95,48.86,1019.09,2030.04,3366.02,3084.00,3543.69,599.95,595.93,21.37,0000 0000 0000 0000 000000
2018-06-30 01:45:36,0.00,0.06,0.00,23.73,27.05,29.71,13.89,48.87,1019.08,2030.02,3366.00,3083.99,3543.22,599.95,595.96,21.42,0000 0000 0000 0000 000000
2018-06-30 01:50:37,0.00,0.06,0.00,23.76,27.07,29.73,13.86,48.88,1019.08,2030.00,3365.99,3083.92,3543.02,599.65,595.76,21.47,0000 0000 0000 0000 000000
2018-06-30 01:55:38,0.01,0.06,0.00,23.79,27.09,29.72,13.96,48.94,1019.07,2030.00,3365.99,3083.82,3543.01,599.95,595.80,21.52,0000 0000 0000 0000 000000
2018-06-30 02:00:39,0.01,0.06,0.00,23.82,27.10,29.77,13.97,48.89,1019.06,2030.00,3365.95,3083.29,3543.00,600.11,595.95,21.57,0000 0000 0000 0000 000000
2018-06-30 02:05:40,0.01,0.06,0.00,23.83,27.12,29.75,13.99,48.80,1019.06,2029.99,3365.83,3083.09,3542.98,600.14,595.96,21.62,0000 0000 0000 0000 000000
2018-06-30 02:10:42,0.01,0.06,0.00,23.86,27.14,29.76,13.91,48.77,1019.06,2029.99,3365.47,3083.03,3542.92,600.08,595.82,21.67,0000 0000 0000 0000 000000
2018-06-30 02:15:43,0.01,0.06,0.00,23.89,27.16,29.79,13.90,48.77,1019.06,2029.98,3365.08,3083.00,3542.45,599.95,595.67,21.72,0000 0000 0000 0000 000000
2018-06-30 02:20:44,0.00,0.06,0.00,23.92,27.17,29.80,13.93,48.77,1019.06,2029.96,3365.01,3083.00,3542.05,600.25,595.78,21.77,0000 0000 0000 0000 000000
2018-06-30 02:25:46,-0.00,0.06,0.00,23.93,27.20,29.84,13.93,48.73,1019.06,2029.93,3365.00,3082.98,3542.01,600.09,595.73,21.82,0000 0000 0000 0000 000000
2018-06-30 02:30:47,-0.02,0.06,0.00,23.96,27.21,29.86,13.99,48.77,1019.06,2029.71,3364.99,3082.83,3542.00,600.33,595.85,21.87,0000 0000 0000 0000 000000
2018-06-30 02:35:48,-0.01,0.06,0.00,23.98,27.23,29.86,13.93,48.67,1019.06,2029.39,3364.97,3082.45,3541.97,600.29,595.84,21.92,0000 0000 0000 0000 000000
2018-06-30 02:40:49,-0.01,0.06,0.00,24.00,27.26,29.90,13.96,48.72,1019.02,2029.10,3364.80,3082.10,3541.88,600.01,595.46,21.97,0000 0000 0000 0000 000000
2018-06-30 02:45:50,0.01,0.06,0.00,24.02,27.27,29.92,13.98,48.66,1018.86,2029.05,3364.39,3082.02,3541.59,600.14,595.41,22.02,0000 0000 0000 0000 000000
2018-06-30 02:50:52,0.01,0.06,0.00,24.05,27.30,29.95,14.04,48.73,1018.79,2029.02,3364.12,3082.00,3541.12,600.23,595.50,22.07,0000 0000 0000 0000 000000
2018-06-30 02:55:53,0.00,0.06,0.00,24.07,27.32,29.98,13.92,48.77,1018.68,2029.01,3364.02,3082.00,3541.01,599.76,594.93,22.12,0000 0000 0000 0000 000000
2018-06-30 03:00:55,0.00,0.06,0.00,24.09,27.35,29.98,13.91,48.68,1018.61,2029.00,3364.00,3081.97,3541.00,599.91,594.90,22.17,0000 0000 0000 0000 000000
2018-06-30 03:05:56,0.00,0.06,0.00,24.12,27.36,30.00,13.98,48.71,1018.60,2029.00,3364.00,3081.93,3540.99,600.08,595.02,22.22,0000 0000 0000 0000 000000
2018-06-30 03:10:57,0.01,0.06,0.00,24.14,27.39,30.01,13.85,48.75,1018.60,2029.00,3363.95,3081.62,3540.96,599.77,594.73,22.27,0000 0000 0000 0000 000000
2018-06-30 03:15:58,0.01,0.06,0.00,24.16,27.41,30.04,13.89,48.58,1018.60,2029.00,3363.84,3081.17,3540.77,599.98,594.60,22.32,0000 0000 0000 0000 000000
2018-06-30 03:20:59,0.01,0.06,0.00,24.17,27.43,30.06,13.88,48.58,1018.60,2028.97,3363.35,3081.04,3540.31,600.37,595.25,22.37,0000 0000 0000 0000 000000
2018-06-30 03:26:01,0.00,0.06,0.00,24.19,27.46,30.09,13.90,48.68,1018.59,2028.95,3363.02,3081.00,3540.01,600.00,594.78,22.42,0000 0000 0000 0000 000000
2018-06-30 03:31:02,-0.02,0.06,0.00,24.20,27.47,30.12,13.87,48.63,1018.61,2028.79,3363.00,3081.00,3540.00,600.00,594.89,22.47,0000 0000 0000 0000 000000
2018-06-30 03:36:03,-0.01,0.06,0.00,24.23,27.50,30.13,13.84,48.67,1018.65,2028.69,3363.00,3080.97,3540.00,599.77,594.56,22.52,0000 0000 0000 0000 000000
2018-06-30 03:41:04,-0.03,0.06,0.00,24.26,27.52,30.16,13.85,48.56,1018.61,2028.21,3362.94,3080.69,3539.84,599.96,594.58,22.57,0000 0000 0000 0000 000000
2018-06-30 03:46:05,0.01,0.06,0.00,24.27,27.55,30.18,13.87,48.73,1018.59,2028.07,3362.83,3080.30,3539.45,599.93,594.52,22.62,0000 0000 0000 0000 000000
2018-06-30 03:51:07,0.01,0.06,0.00,24.30,27.57,30.20,13.88,48.72,1018.60,2028.04,3362.26,3080.05,3539.03,600.13,594.74,22.67,0000 0000 0000 0000 000000
2018-06-30 03:56:08,0.00,0.06,0.00,24.33,27.59,30.22,13.90,48.62,1018.59,2028.02,3362.03,3080.00,3539.00,599.89,594.23,22.72,0000 0000 0000 0000 000000
2018-06-30 04:01:09,0.00,0.06,0.00,24.35,27.61,30.23,13.83,48.63,1018.58,2028.01,3362.01,3080.00,3538.98,599.89,594.33,22.77,0000 0000 0000 0000 000000
2018-06-30 04:06:10,0.00,0.06,0.00,24.36,27.64,30.25,13.87,48.63,1018.57,2028.00,3362.00,3079.99,3538.97,599.99,594.44,22.82,0000 0000 0000 0000 000000
2018-06-30 04:11:11,0.00,0.06,0.00,24.39,27.66,30.29,13.88,48.70,1018.57,2028.00,3361.99,3079.97,3538.81,599.98,594.37,22.87,0000 0000 0000 0000 000000
2018-06-30 04:16:13,0.03,0.06,0.00,24.40,27.68,30.33,13.88,48.68,1018.57,2027.99,3361.70,3079.49,3538.17,600.21,594.53,22.92,0000 0000 0000 0000 000000
2018-06-30 04:21:14,0.01,0.06,0.00,24.43,27.70,30.33,13.94,48.67,1018.56,2027.96,3361.19,3079.04,3538.01,600.33,594.58,22.97,0000 0000 0000 0000 000000
2018-06-30 04:26:16,-0.01,0.06,0.00,24.45,27.72,30.35,13.90,48.58,1018.57,2027.78,3361.03,3079.00,3537.98,600.35,594.52,23.02,0000 0000 0000 0000 000000
2018-06-30 04:31:17,-0.03,0.06,0.00,24.46,27.75,30.37,13.84,48.39,1018.57,2027.43,3360.99,3078.99,3537.85,599.93,594.18,23.07,0000 0000 0000 0000 000000
2018-06-30 04:36:18,0.00,0.06,0.00,24.47,27.77,30.39,13.91,48.39,1018.57,2027.19,3360.85,3078.92,3537.27,600.05,594.22,23.12,0000 0000 0000 0000 000000
2018-06-30 04:41:19,0.01,0.06,0.00,24.51,27.79,30.42,13.92,48.54,1018.55,2027.07,3360.29,3078.51,3537.03,600.14,594.29,23.17,0000 0000 0000 0000 000000
2018-06-30 04:46:20,0.00,0.06,0.00,24.53,27.81,30.44,13.80,48.57,1018.52,2027.02,3360.03,3078.14,3537.00,600.01,594.05,23.22,0000 0000 0000 0000 000000
2018-06-30 04:51:22,0.00,0.06,0.00,24.56,27.83,30.47,13.96,48.65,1018.39,2027.00,3360.00,3078.02,3537.00,600.21,594.21,23.27,0000 0000 0000 0000 000000
2018-06-30 04:56:23,0.00,0.06,0.00,24.57,27.85,30.49,13.91,48.64,1018.25,2027.00,3360.00,3078.00,3536.93,600.06,593.91,23.33,0000 0000 0000 0000 000000
2018-06-30 05:01:24,0.00,0.06,0.00,24.59,27.87,30.51,13.85,48.59,1018.13,2027.00,3359.97,3077.99,3536.66,600.22,593.92,23.38,0000 0000 0000 0000 000000
2018-06-30 05:06:26,0.00,0.06,0.00,24.61,27.90,30.52,13.82,48.46,1018.09,2027.00,3359.93,3077.96,3536.12,599.65,593.35,23.43,0000 0000 0000 0000 000000
2018-06-30 05:11:27,0.00,0.06,0.00,24.63,27.92,30.53,13.86,48.62,1018.10,2027.00,3359.74,3077.91,3536.01,599.84,593.42,23.48,0000 0000 0000 0000 000000
2018-06-30 05:16:28,0.02,0.06,0.00,24.65,27.95,30.56,13.84,48.57,1018.09,2026.98,3359.22,3077.44,3536.00,599.93,593.58,23.53,0000 0000 0000 0000 000000
2018-06-30 05:21:29,0.01,0.06,0.00,24.66,27.96,30.57,13.89,48.57,1018.09,2026.94,3359.03,3077.08,3536.00,600.13,593.80,23.58,0000 0000 0000 0000 000000
2018-06-30 05:26:30,-0.01,0.06,0.00,24.67,27.98,30.60,13.85,48.52,1018.09,2026.81,3359.00,3077.01,3535.97,600.01,593.51,23.63,0000 0000 0000 0000 000000
2018-06-30 05:31:32,-0.03,0.06,0.00,24.71,28.00,30.62,13.87,48.61,1018.09,2026.54,3359.00,3077.00,3535.62,599.96,593.48,23.68,0000 0000 0000 0000 000000
2018-06-30 05:36:33,-0.02,0.06,0.00,24.73,28.02,30.65,13.92,48.64,1018.09,2026.20,3358.96,3077.00,3535.17,599.99,593.36,23.73,0000 0000 0000 0000 000000
2018-06-30 05:41:34,-0.00,0.06,0.00,24.74,28.05,30.66,13.91,48.63,1018.09,2026.04,3358.78,3076.96,3535.02,600.20,593.55,23.78,0000 0000 0000 0000 000000
2018-06-30 05:46:35,0.02,0.06,0.00,24.77,28.06,30.69,13.91,48.63,1018.08,2026.01,3358.14,3076.68,3534.99,600.37,593.66,23.83,0000 0000 0000 0000 000000
2018-06-30 05:51:37,0.01,0.06,0.00,24.79,28.08,30.70,13.85,48.58,1018.08,2026.00,3358.00,3076.16,3534.94,599.86,593.13,23.88,0000 0000 0000 0000 000000
2018-06-30 05:56:38,0.00,0.06,0.00,24.81,28.10,30.73,13.78,48.54,1018.08,2026.00,3358.00,3076.04,3534.65,599.78,593.03,23.93,0000 0000 0000 0000 000000
2018-06-30 06:01:39,0.00,0.06,0.00,24.82,28.12,30.74,13.85,48.61,1018.08,2026.00,3357.89,3076.00,3534.06,600.38,593.73,23.98,0000 0000 0000 0000 000000
2018-06-30 06:06:40,0.01,0.06,0.00,24.85,28.14,30.76,13.88,48.44,1018.08,2025.98,3357.20,3075.97,3534.00,599.90,593.15,24.03,0000 0000 0000 0000 000000
2018-06-30 06:11:42,-0.00,0.06,0.00,24.85,28.16,30.77,13.89,48.58,1017.99,2025.98,3357.19,3075.98,3534.00,600.05,593.16,24.08,0000 0000 0000 0000 000000
2018-06-30 06:16:43,0.00,0.06,0.00,24.87,28.17,30.81,13.86,48.52,1017.70,2025.98,3357.02,3075.91,3533.97,600.06,592.98,24.13,0000 0000 0000 0000 000000
2018-06-30 06:21:44,0.02,0.06,0.00,24.89,28.20,30.82,13.85,48.64,1017.66,2025.97,3357.00,3075.28,3533.55,599.94,592.83,24.18,0000 0000 0000 0000 000000
2018-06-30 06:26:45,-0.01,0.06,0.00,24.91,28.21,30.85,13.80,48.57,1017.62,2025.89,3356.94,3075.02,3533.07,599.80,592.62,24.23,0000 0000 0000 0000 000000
2018-06-30 06:31:46,-0.01,0.06,0.00,24.93,28.24,30.84,13.90,48.69,1017.61,2025.58,3356.53,3075.00,3533.00,600.05,592.87,24.28,0000 0000 0000 0000 000000
2018-06-30 06:36:48,-0.02,0.06,0.00,24.96,28.26,30.88,13.82,48.58,1017.60,2025.38,3356.16,3075.00,3533.00,600.12,592.79,24.33,0000 0000 0000 0000 000000
2018-06-30 06:41:49,-0.01,0.06,0.00,24.98,28.27,30.90,13.81,48.71,1017.61,2025.11,3356.02,3074.98,3532.98,600.08,592.68,24.38,0000 0000 0000 0000 000000
2018-06-30 06:46:50,0.01,0.06,0.00,25.01,28.30,30.89,13.83,48.55,1017.60,2025.03,3356.00,3074.77,3532.54,599.81,592.41,24.43,0000 0000 0000 0000 000000
2018-06-30 06:51:52,0.02,0.06,0.00,25.02,28.32,30.93,13.87,48.60,1017.60,2025.00,3355.95,3074.11,3532.03,600.42,592.93,24.48,0000 0000 0000 0000 000000
2018-06-30 06:56:53,0.01,0.06,0.00,25.06,28.35,30.96,13.81,48.58,1017.59,2025.00,3355.64,3074.01,3532.00,599.78,592.26,24.53,0000 0000 0000 0000 000000
2018-06-30 07:01:54,0.00,0.06,0.00,25.09,28.37,30.98,13.86,48.52,1017.59,2025.00,3355.17,3074.00,3531.98,599.99,592.40,24.58,0000 0000 0000 0000 000000
2018-06-30 07:06:55,0.01,0.06,0.00,25.13,28.40,31.00,13.82,48.65,1017.59,2024.99,3355.00,3073.94,3531.40,599.94,592.34,24.63,0000 0000 0000 0000 000000
2018-06-30 07:11:56,0.02,0.07,0.00,25.16,28.42,31.03,13.87,48.64,1017.59,2024.97,3354.97,3073.48,3531.01,600.06,592.34,24.68,0000 0000 0000 0000 000000
2018-06-30 07:16:58,0.01,0.07,0.00,25.20,28.44,31.04,13.80,48.46,1017.59,2024.97,3354.83,3073.11,3530.99,600.02,592.34,24.73,0000 0000 0000 0000 000000
2018-06-30 07:21:59,0.01,0.07,0.00,25.23,28.46,31.06,13.83,48.55,1017.59,2024.95,3354.39,3073.02,3530.95,599.98,592.08,24.78,0000 0000 0000 0000 000000
2018-06-30 07:27:01,-0.02,0.07,0.00,25.28,28.49,31.08,13.81,48.63,1017.59,2024.71,3354.03,3073.00,3530.41,599.99,592.01,24.83,0000 0000 0000 0000 000000
2018-06-30 07:32:02,-0.03,0.06,0.00,25.31,28.51,31.09,13.81,48.58,1017.51,2024.20,3354.00,3072.97,3530.02,600.12,592.08,24.88,0000 0000 0000 0000 000000
2018-06-30 07:37:03,0.02,0.06,0.00,25.36,28.54,31.13,13.86,48.45,1017.40,2024.02,3353.78,3072.40,3529.97,600.20,591.82,24.93,0000 0000 0000 0000 000000
2018-06-30 07:42:04,0.02,0.07,0.00,25.40,28.57,31.14,13.77,48.53,1017.23,2024.01,3353.15,3072.02,3529.60,599.98,591.63,24.98,0000 0000 0000 0000 000000
2018-06-30 07:47:06,0.01,0.07,0.00,25.43,28.60,31.16,13.75,48.49,1017.32,2024.00,3353.01,3072.00,3529.08,599.98,591.56,25.03,0000 0000 0000 0000 000000
2018-06-30 07:52:07,0.00,0.07,0.00,25.48,28.63,31.18,13.79,48.41,1017.40,2024.00,3352.99,3071.99,3529.01,599.83,591.37,25.08,0000 0000 0000 0000 000000
2018-06-30 07:57:08,0.01,0.07,0.00,25.51,28.66,31.23,13.79,48.39,1017.36,2023.98,3352.81,3071.77,3528.96,599.87,591.31,25.13,0000 0000 0000 0000 000000
2018-06-30 08:02:09,0.03,0.07,0.00,25.54,28.68,31.24,13.75,48.43,1017.35,2023.98,3352.16,3071.14,3528.53,599.89,591.29,25.18,0000 0000 0000 0000 000000
2018-06-30 08:07:11,-0.00,0.07,0.00,25.57,28.71,31.26,13.75,48.37,1017.46,2023.94,3352.02,3071.02,3528.06,599.80,591.20,25.23,0000 0000 0000 0000 000000
2018-06-30 08:12:12,-0.05,0.07,0.00,25.60,28.74,31.29,13.92,48.62,1017.59,2023.55,3351.97,3071.00,3527.99,600.40,591.71,25.28,0000 0000 0000 0000 000000
2018-06-30 08:17:14,-0.01,0.07,0.00,25.62,28.77,31.31,13.82,48.66,1017.59,2023.13,3351.74,3070.97,3527.82,599.97,591.40,25.33,0000 0000 0000 0000 000000
2018-06-30 08:22:15,0.03,0.07,0.00,25.66,28.80,31.36,13.76,48.53,1017.59,2023.05,3351.21,3070.58,3527.21,599.83,591.12,25.38,0000 0000 0000 0000 000000
2018-06-30 08:27:16,0.00,0.07,0.00,25.70,28.83,31.38,13.88,48.59,1017.59,2023.01,3351.00,3070.06,3527.01,600.21,591.42,25.43,0000 0000 0000 0000 000000
2018-06-30 08:32:17,0.00,0.07,0.00,25.73,28.86,31.41,13.83,48.51,1017.59,2023.00,3350.97,3070.00,3526.90,599.87,591.23,25.48,0000 0000 0000 0000 000000
2018-06-30 08:37:19,0.02,0.07,0.00,25.76,28.89,31.43,13.82,48.67,1017.59,2022.97,3350.39,3069.95,3526.15,600.19,591.23,25.53,0000 0000 0000 0000 000000
2018-06-30 08:42:20,0.01,0.07,0.00,25.78,28.92,31.46,13.75,48.55,1017.59,2022.86,3350.02,3069.42,3526.00,599.69,590.82,25.58,0000 0000 0000 0000 000000
2018-06-30 08:47:22,-0.04,0.07,0.00,25.83,28.96,31.50,13.79,48.58,1017.59,2022.32,3350.00,3069.02,3525.88,600.19,591.07,25.63,0000 0000 0000 0000 000000
2018-06-30 08:52:23,0.00,0.07,0.00,25.88,28.99,31.53,13.83,48.51,1017.57,2022.03,3349.77,3069.00,3525.16,600.29,591.19,25.68,0000 0000 0000 0000 000000
2018-06-30 08:57:24,0.01,0.07,0.00,25.91,29.02,31.56,13.78,48.51,1017.55,2022.00,3349.09,3068.90,3525.00,599.85,590.69,25.73,0000 0000 0000 0000 000000
2018-06-30 09:02:25,0.03,0.07,0.00,25.94,29.05,31.59,13.79,48.46,1017.58,2022.00,3348.98,3068.14,3524.64,600.26,591.01,25.78,0000 0000 0000 0000 000000
2018-06-30 09:07:27,0.01,0.07,0.00,25.99,29.08,31.63,13.78,48.52,1017.53,2022.00,3348.76,3068.00,3524.09,599.90,590.40,25.83,0000 0000 0000 0000 000000
2018-06-30 09:12:28,0.00,0.07,0.00,26.02,29.11,31.65,13.74,48.58,1017.55,2021.96,3348.07,3067.98,3523.99,599.62,590.29,25.88,0000 0000 0000 0000 000000
2018-06-30 09:17:30,-0.01,0.07,0.00,26.07,29.15,31.67,13.81,48.48,1017.46,2021.77,3348.00,3067.80,3523.87,600.26,590.56,25.93,0000 0000 0000 0000 000000
2018-06-30 09:22:31,-0.01,0.07,0.00,26.11,29.19,31.74,13.77,48.49,1017.31,2021.49,3347.99,3067.33,3523.38,600.08,590.27,25.98,0000 0000 0000 0000 000000
2018-06-30 09:27:33,-0.01,0.07,0.00,26.17,29.22,31.77,13.84,48.57,1017.31,2021.11,3347.68,3067.01,3523.02,599.97,590.16,26.03,0000 0000 0000 0000 000000
2018-06-30 09:32:34,0.00,0.07,0.00,26.21,29.26,31.80,13.73,48.53,1017.18,2021.01,3347.06,3067.00,3522.96,599.83,589.78,26.08,0000 0000 0000 0000 000000
2018-06-30 09:37:35,0.01,0.07,0.00,26.26,29.29,31.84,13.79,48.56,1017.12,2021.00,3347.00,3066.79,3522.34,600.09,589.97,26.13,0000 0000 0000 0000 000000
2018-06-30 09:42:37,0.01,0.07,0.00,26.31,29.33,31.87,13.79,48.47,1017.12,2020.99,3346.94,3066.11,3522.01,600.06,589.68,26.18,0000 0000 0000 0000 000000
2018-06-30 09:47:38,0.01,0.07,0.00,26.37,29.37,31.90,13.79,48.46,1017.12,2020.85,3346.16,3066.00,3521.74,599.92,589.71,26.23,0000 0000 0000 0000 000000
2018-06-30 09:52:39,-0.04,0.07,0.00,26.43,29.41,31.95,13.78,48.40,1017.13,2020.34,3345.99,3065.89,3521.08,600.00,589.49,26.28,0000 0000 0000 0000 000000
2018-06-30 09:57:40,0.01,0.07,0.00,26.47,29.45,31.98,13.84,48.49,1017.14,2020.05,3345.67,3065.19,3520.99,600.38,589.80,26.33,0000 0000 0000 0000 000000
2018-06-30 10:02:42,0.01,0.07,0.00,26.52,29.49,32.03,13.80,48.48,1017.11,2020.00,3345.09,3065.01,3520.51,600.12,589.43,26.38,0000 0000 0000 0000 000000
2018-06-30 10:07:43,0.00,0.07,0.00,26.57,29.53,32.06,13.75,48.42,1017.11,2020.00,3345.00,3064.93,3520.01,600.11,589.38,26.43,0000 0000 0000 0000 000000
2018-06-30 10:12:44,0.02,0.07,0.00,26.63,29.58,32.11,13.74,48.41,1017.11,2019.97,3344.65,3064.34,3519.95,600.03,589.22,26.48,0000 0000 0000 0000 000000
2018-06-30 10:17:45,-0.01,0.07,0.00,26.69,29.62,32.15,13.76,48.43,1017.11,2019.77,3344.04,3064.01,3519.26,599.99,589.01,26.53,0000 0000 0000 0000 000000
2018-06-30 10:22:47,-0.05,0.07,0.00,26.74,29.66,32.21,13.75,48.55,1017.11,2019.19,3343.98,3063.99,3519.00,600.01,588.94,26.58,0000 0000 0000 0000 000000
2018-06-30 10:27:48,0.03,0.07,0.00,26.79,29.71,32.26,13.73,48.53,1017.11,2019.02,3343.39,3063.36,3518.76,599.78,588.62,26.63,0000 0000 0000 0000 000000
2018-06-30 10:32:49,0.01,0.07,0.00,26.84,29.76,32.35,13.80,48.36,1017.11,2019.00,3343.00,3063.01,3518.07,600.43,589.09,26.68,0000 0000 0000 0000 000000
2018-06-30 10:37:50,0.01,0.07,0.00,26.90,29.80,32.40,13.75,48.37,1017.11,2018.98,3342.81,3062.86,3517.89,599.97,588.60,26.73,0000 0000 0000 0000 000000
2018-06-30 10:42:51,0.02,0.07,0.00,26.97,29.85,32.48,13.69,48.26,1017.11,2018.83,3342.11,3062.18,3517.17,599.80,588.27,26.78,0000 0000 0000 0000 000000
2018-06-30 10:47:52,-0.05,0.07,0.00,27.04,29.90,32.57,13.72,48.23,1017.11,2018.26,3341.99,3062.00,3516.98,600.00,588.47,26.83,0000 0000 0000 0000 000000
2018-06-30 10:52:54,0.02,0.07,0.00,27.09,29.95,32.67,13.67,48.29,1017.11,2018.02,3341.41,3061.62,3516.30,599.55,587.85,26.88,0000 0000 0000 0000 000000
2018-06-30 10:57:55,0.01,0.07,0.00,27.15,30.00,32.74,13.69,48.20,1017.11,2018.00,3341.01,3061.05,3516.00,599.93,587.97,26.93,0000 0000 0000 0000 000000
2018-06-30 11:02:56,0.02,0.07,0.00,27.21,30.05,32.82,13.71,48.11,1017.11,2017.99,3340.75,3060.94,3515.47,599.93,587.89,26.99,0000 0000 0000 0000 000000
2018-06-30 11:07:57,0.00,0.07,0.00,27.27,30.10,32.87,13.76,48.10,1017.11,2017.81,3340.10,3060.50,3515.01,600.47,588.42,27.04,0000 0000 0000 0000 000000
2018-06-30 11:12:58,-0.04,0.07,0.00,27.33,30.15,32.92,13.73,48.23,1017.11,2017.15,3339.98,3060.02,3514.62,600.03,587.82,27.09,0000 0000 0000 0000 000000
2018-06-30 11:18:00,0.01,0.07,0.00,27.38,30.20,32.98,13.67,48.13,1017.11,2017.01,3339.51,3059.95,3514.04,600.20,587.82,27.14,0000 0000 0000 0000 000000
2018-06-30 11:23:01,0.01,0.07,0.00,27.44,30.24,33.02,13.72,48.25,1017.11,2017.00,3339.02,3059.56,3513.98,600.12,587.66,27.19,0000 0000 0000 0000 000000
2018-06-30 11:28:02,0.02,0.07,0.00,27.47,30.28,32.99,13.69,48.23,1017.11,2016.99,3338.99,3059.03,3513.40,599.66,587.13,27.24,0000 0000 0000 0000 000000
2018-06-30 11:33:03,-0.00,0.07,0.00,27.49,30.32,32.99,13.62,48.19,1017.04,2016.88,3338.49,3058.99,3513.00,599.66,587.07,27.29,0000 0000 0000 0000 000000
2018-06-30 11:38:05,-0.03,0.07,0.00,27.52,30.36,33.03,13.74,48.10,1016.99,2016.37,3338.02,3058.62,3512.74,600.33,587.66,27.34,0000 0000 0000 0000 000000
2018-06-30 11:43:06,0.00,0.07,0.00,27.54,30.40,33.07,13.68,48.02,1017.04,2016.04,3337.93,3058.04,3512.06,600.00,587.41,27.39,0000 0000 0000 0000 000000
2018-06-30 11:48:07,0.01,0.07,0.00,27.54,30.43,33.11,13.65,48.17,1016.84,2016.00,3337.32,3057.99,3511.99,599.44,586.67,27.44,0000 0000 0000 0000 000000
2018-06-30 11:53:08,0.01,0.07,0.00,27.52,30.46,33.14,13.65,48.09,1016.81,2016.00,3337.01,3057.93,3511.64,599.93,587.25,27.49,0000 0000 0000 0000 000000
2018-06-30 11:58:09,0.02,0.07,0.00,27.48,30.48,33.20,13.71,48.17,1016.75,2016.00,3336.99,3057.50,3511.09,600.17,587.40,27.54,0000 0000 0000 0000 000000
2018-06-30 12:03:11,0.01,0.08,0.00,27.43,30.51,33.26,13.76,48.10,1016.63,2015.97,3336.61,3057.06,3511.00,600.04,587.35,27.59,0000 0000 0000 0000 000000
2018-06-30 12:08:12,-0.00,0.08,0.00,27.37,30.52,33.24,13.79,48.15,1016.63,2015.83,3336.05,3057.00,3510.80,600.18,587.63,27.64,0000 0000 0000 0000 000000
2018-06-30 12:13:13,-0.03,0.07,0.00,27.29,30.55,33.26,13.67,48.19,1016.67,2015.44,3335.99,3056.96,3510.12,599.83,587.52,27.69,0000 0000 0000 0000 000000
2018-06-30 12:18:14,-0.00,0.07,0.00,27.23,30.56,33.35,13.69,48.20,1016.66,2015.06,3335.80,3056.59,3510.00,599.74,587.45,27.74,0000 0000 0000 0000 000000
2018-06-30 12:23:16,0.02,0.07,0.00,27.19,30.57,33.35,13.73,48.31,1016.65,2015.03,3335.16,3056.07,3509.92,599.90,587.64,27.79,0000 0000 0000 0000 000000
2018-06-30 12:28:17,0.01,0.07,0.00,27.15,30.58,33.50,13.76,48.27,1016.65,2015.04,3335.01,3056.00,3509.59,599.82,587.63,27.84,0000 0000 0000 0000 000000
2018-06-30 12:33:18,-0.00,0.08,0.00,27.10,30.60,33.54,13.81,48.31,1016.63,2015.02,3335.00,3056.00,3509.11,600.23,588.11,27.89,0000 0000 0000 0000 000000
2018-06-30 12:38:20,0.00,0.08,0.00,27.07,30.60,33.59,13.76,48.40,1016.64,2015.00,3334.80,3055.97,3509.01,600.24,588.19,27.94,0000 0000 0000 0000 000000
2018-06-30 12:43:21,0.01,0.08,0.00,27.05,30.60,33.61,13.80,48.31,1016.62,2015.00,3334.32,3055.92,3508.97,600.09,588.11,27.99,0000 0000 0000 0000 000000
2018-06-30 12:48:22,0.02,0.08,0.00,27.03,30.61,33.58,13.69,48.33,1016.62,2015.00,3334.02,3055.32,3508.63,599.76,587.82,28.04,0000 0000 0000 0000 000000
2018-06-30 12:53:24,0.02,0.08,0.00,27.02,30.62,33.60,13.74,48.37,1016.62,2015.00,3333.66,3055.01,3508.04,599.87,587.93,28.09,0000 0000 0000 0000 000000